Regional Weather Roundup
Issued by NWS Newport/Morehead, NC

Current Version | Previous Version | Text Only | Print | Product List | Glossary On
Versions: 1 2 3 4 5 6 7 8 9 10 11 12 13 14 15 16 17 18 19 20 21 22 23 24 25 26 27 28 29 30 31 32 33 34 35 36 37 38 39 40 41 42 43 44 45 46 47 48 49 50
000 ASUS42 KMHX 250622 RWRMHX WEATHER ROUNDUP FOR EASTERN NORTH CAROLINA NATIONAL WEATHER SERVICE NEWPORT/MOREHEAD CITY NC 100 AM EST THU DEC 25 2014 NOTE: "FAIR" INDICATES FEW OR NO CLOUDS BELOW 12,000 FEET WITH NO SIGNIFICANT WEATHER AND/OR OBSTRUCTIONS TO VISIBILITY NCZ015>017-031-032-045>047-102-103-250700- NORTH COAST CITY SKY/WX TMP DP RH WIND PRES REMARKS EDENTON LGT RAIN 64 63 96 SW12G17 29.70R ELIZABETH CITY CLOUDY 71 66 84 S14 29.68R KITTY HAWK CLOUDY 66 66 100 S12G21 29.69F FOG MANTEO CLOUDY 61 61 100 S17 29.71S $$ NCZ045>047-081-094-103-104-250700- CENTRAL COAST CITY SKY/WX TMP DP RH WIND PRES REMARKS FRISCO CLOUDY 66 65 96 S16G23 29.73F FOG SWANQUARTER N/A 59 N/A N/A S13G18 29.68S $$ NCZ095-097-098-100-101-250700- SOUTHERN COAST CITY SKY/WX TMP DP RH WIND PRES REMARKS BEAUFORT CLOUDY 64 63 96 SW13 29.75S CEDAR ISLAND N/A 70 N/A N/A S10G24 29.77S JACKSONVILLE LGT RAIN 66 63 90 SW9 29.75S PINEY ISLAND LGT RAIN 72 67 84 SW18G29 29.73F WILMINGTON LGT RAIN 65 64 97 SW8 29.77R $$ NCZ011>013-027>030-043-044-078>080-089-090>093-098-250700- COASTAL PLAIN CITY SKY/WX TMP DP RH WIND PRES REMARKS AHOSKIE LGT RAIN 65 61 88 SW6 29.69S CLINTON CLOUDY 65 65 97 SW6 29.73F ELIZABETHTOWN LGT RAIN 66 64 94 SW9 29.74F GOLDSBORO CLOUDY 66 66 99 SW10 29.70F GREENVILLE CLOUDY 68 63 83 SW9 29.75R HAVELOCK CLOUDY 69 64 84 SW17 29.76R KENANSVILLE CLOUDY 65 63 93 CALM 29.73F KINSTON CLOUDY 67 64 88 SW10 29.73S NEW BERN CLOUDY 69 64 84 SW9G18 29.75R RICHLANDS CLOUDY 64 61 88 SW8 29.75F ROCKY MOUNT CLOUDY 65 62 90 SW13 29.70F WASHINGTON CLOUDY 67 64 88 SW9 29.72R WHITEVILLE CLOUDY 66 63 89 SW6 29.75S $$ AMZ130-135-150-152-154-156-158-170-250-252-270-ANZ085-086-088-633-658-670-250700- MARINE OBSERVATIONS STATION/POSITION TIME TEMP WIND PRES WAVE SWELL AIR SEA DIR/SP/G HT/PER HT/PER (UTC) (F) (DEG/KT/KT) (MB) (FT/S) (FT/S) CHESAPEAKE LIGHT 0600 56 190/ 23/ 24 1004.5 64 E VA BEACH 0600 60 53 180/ 19/ 21 1005.0 7/ 8 3/ 8 DUCK 0600 66 50 190/ 17/ 22 1004.1 2 E DUCK 0600 50 N/A 3/ 8 10 NE DUCK 0600 50 N/A 5/ 8 2/11 OREGON INLET 0600 60 53 180/ 15/ 17 1006.1 13E OREGON INLT 0600 51 N/A 6/ 8 2/11 HATTERAS CG 0600 67 56 200/ 8/ 15 1007.2 DIAMOND BUOY 0600 75 1006.4 9/ 8 17 S OCRACOKE NOT AVBL CAPE LOOKOUT 0600 65 200/ 15/ 19 1007.3 BEAUFORT LAB 0600 62 55 210/ 7/ 10 1006.1 30 SE NEW RIVER 0600 65 60 210/ 14/ 16 1008.0 8/ 8 7/ 8 5 SE WRIGHTSVLE NOT AVBL 225 S CAPE HAT 0517 75 72 200/ 19/ 25 1013.5 7/ 7 2/11 41 SE CHARLESTON 0600 71 73 250/ 25/ 31 1008.2 7/ 7 5/ 7 $$

USA.gov is the U.S. government's official web portal to all federal, state and local government web resources and services.